Voltar ao catálogo

STARLINK-38126

AtivoComunicaçõesSSO
NORAD 100235·PAYLOAD·🇺🇸 United States

Lançado Aug 4, 2026 de Vandenberg Space Force Base

Loading…

Próximas Passagens (próximas 24 horas)

TLE

AtualizadoSource: Space-Track

Época: Sep 14, 2026, 23:00 UTC

1 A0235U 26177Y   26257.95857925  .00060869  00000-0  11111-2 0  9991
2 A0235  97.2830 308.7184 0001287  92.5310 267.6089 15.49217950  6502

Acompanhe STARLINK-38126 em tempo real com AllMySat

Download on the App Store